• In Latvia
  • List of Countries
  • For 7 days
  • Water Temperature
  • Satellite Maps
  • Weather Map
  • Weather Widgets
  • user-avatar
    Login

    Hourly Weather São Paulo

    Today, 22 June, Friday

    Time Temperature Precipitation Wind Pressure Humidity
    00:00 +19°C° 0 mm 1 mps 702 mmHg 75%
    01:00 +19°C° 0 mm 1 mps 701 mmHg 76%
    02:00 +18°C° 0 mm 1 mps 701 mmHg 77%
    03:00 +18°C° 0 mm 1 mps 701 mmHg 77%
    04:00 +18°C° 0 mm 1 mps 701 mmHg 77%
    05:00 +18°C° 0 mm 1 mps 701 mmHg 78%
    06:00 +16°C° 0 mm 1 mps 701 mmHg 78%
    07:00 +19°C° 0 mm 1 mps 701 mmHg 73%
    08:00 +20°C° 0 mm 1 mps 702 mmHg 68%
    09:00 +22°C° 0 mm 1 mps 702 mmHg 63%
    10:00 +23°C° 0 mm 1 mps 702 mmHg 57%
    11:00 +25°C° 0 mm 2 mps 702 mmHg 51%
    12:00 +26°C° 0 mm 2 mps 702 mmHg 45%
    13:00 +26°C° 0 mm 2 mps 702 mmHg 47%
    14:00 +25°C° 0 mm 2 mps 702 mmHg 48%
    15:00 +25°C° 0 mm 2 mps 701 mmHg 50%
    16:00 +23°C° 0 mm 1 mps 701 mmHg 57%
    17:00 +22°C° 0 mm 1 mps 701 mmHg 64%
    18:00 +20°C° 0 mm 1 mps 701 mmHg 71%
    19:00 +20°C° 0 mm 1 mps 701 mmHg 73%
    20:00 +19°C° 0 mm 1 mps 701 mmHg 75%
    21:00 +19°C° 0 mm 1 mps 701 mmHg 77%
    22:00 +18°C° 0 mm 1 mps 701 mmHg 77%
    23:00 +18°C° 0 mm 1 mps 701 mmHg 78%

    Tomorrow, 23 June, Saturday

    Time Temperature Precipitation Wind Pressure Humidity
    00:00 +18°C° 0 mm 1 mps 701 mmHg 78%
    01:00 +18°C° 0 mm 1 mps 701 mmHg 78%
    02:00 +16°C° 0 mm 1 mps 701 mmHg 78%
    03:00 +16°C° 0 mm 1 mps 700 mmHg 77%
    04:00 +16°C° 0 mm 1 mps 700 mmHg 77%
    05:00 +16°C° 0 mm 1 mps 700 mmHg 76%
    06:00 +16°C° 0 mm 1 mps 700 mmHg 76%
    07:00 +18°C° 0 mm 1 mps 701 mmHg 71%
    08:00 +20°C° 0 mm 1 mps 702 mmHg 66%
    09:00 +21°C° 0 mm 1 mps 702 mmHg 61%
    10:00 +23°C° 0 mm 2 mps 702 mmHg 55%
    11:00 +25°C° 0 mm 2 mps 702 mmHg 49%
    12:00 +26°C° 0 mm 3 mps 702 mmHg 43%
    13:00 +26°C° 0 mm 3 mps 702 mmHg 44%
    14:00 +26°C° 0 mm 3 mps 701 mmHg 45%
    15:00 +26°C° 0 mm 3 mps 701 mmHg 45%
    16:00 +25°C° 0 mm 3 mps 701 mmHg 52%
    17:00 +23°C° 0 mm 2 mps 700 mmHg 58%
    18:00 +21°C° 0 mm 2 mps 700 mmHg 64%
    19:00 +21°C° 0 mm 1 mps 701 mmHg 66%
    20:00 +20°C° 0 mm 1 mps 701 mmHg 68%
    21:00 +20°C° 0 mm 1 mps 701 mmHg 70%
    22:00 +19°C° 0 mm 1 mps 701 mmHg 71%
    23:00 +19°C° 0 mm 1 mps 702 mmHg 71%

    Day after tomorrow, 24 June, Sunday

    Time Temperature Precipitation Wind Pressure Humidity
    00:00 +18°C° 0 mm 2 mps 702 mmHg 72%
    01:00 +18°C° 0 mm 2 mps 701 mmHg 72%
    02:00 +17°C° 0 mm 2 mps 701 mmHg 73%
    03:00 +17°C° 0 mm 2 mps 701 mmHg 73%
    04:00 +17°C° 0 mm 2 mps 701 mmHg 74%
    05:00 +17°C° 0 mm 2 mps 701 mmHg 75%
    06:00 +17°C° 0 mm 2 mps 701 mmHg 75%
    07:00 +18°C° 0 mm 2 mps 702 mmHg 70%
    08:00 +20°C° 0 mm 2 mps 703 mmHg 66%
    09:00 +21°C° 0 mm 2 mps 703 mmHg 61%
    10:00 +24°C° 0 mm 2 mps 703 mmHg 54%
    11:00 +25°C° 0 mm 2 mps 703 mmHg 47%
    12:00 +27°C° 0 mm 2 mps 703 mmHg 40%
    13:00 +27°C° 0 mm 2 mps 703 mmHg 42%
    14:00 +26°C° 0 mm 2 mps 702 mmHg 43%
    15:00 +26°C° 0 mm 2 mps 702 mmHg 45%
    16:00 +24°C° 0 mm 2 mps 702 mmHg 55%
    17:00 +21°C° 0 mm 2 mps 702 mmHg 64%
    18:00 +19°C° 0 mm 2 mps 702 mmHg 74%
    19:00 +19°C° 0 mm 2 mps 702 mmHg 78%
    20:00 +18°C° 0 mm 2 mps 702 mmHg 82%
    21:00 +18°C° 0 mm 2 mps 703 mmHg 87%
    22:00 +18°C° 0 mm 2 mps 702 mmHg 88%
    23:00 +18°C° 0 mm 1 mps 702 mmHg 90%

    25 June, Monday

    Time Temperature Precipitation Wind Pressure Humidity
    00:00 +18°C° 0 mm 1 mps 702 mmHg 92%
    01:00 +18°C° 0 mm 1 mps 702 mmHg 91%
    02:00 +16°C° 0 mm 1 mps 702 mmHg 91%
    03:00 +16°C° 0 mm 1 mps 701 mmHg 91%
    04:00 +16°C° 0 mm 1 mps 701 mmHg 90%
    05:00 +16°C° 0 mm 1 mps 701 mmHg 89%
    06:00 +16°C° 0 mm 1 mps 701 mmHg 87%
    07:00 +18°C° 0 mm 1 mps 702 mmHg 81%
    08:00 +19°C° 0 mm 1 mps 702 mmHg 75%
    09:00 +21°C° 0 mm 1 mps 703 mmHg 69%
    10:00 +21°C° 0 mm 2 mps 703 mmHg 61%
    11:00 +24°C° 0 mm 2 mps 703 mmHg 53%
    12:00 +26°C° 0 mm 3 mps 703 mmHg 45%
    13:00 +26°C° 0 mm 3 mps 702 mmHg 45%
    14:00 +26°C° 0 mm 3 mps 701 mmHg 45%
    15:00 +26°C° 0 mm 3 mps 701 mmHg 45%
    16:00 +25°C° 0 mm 3 mps 700 mmHg 51%
    17:00 +23°C° 0 mm 2 mps 700 mmHg 57%
    18:00 +21°C° 0 mm 2 mps 700 mmHg 63%
    19:00 +20°C° 0 mm 2 mps 700 mmHg 64%
    20:00 +19°C° 0 mm 2 mps 701 mmHg 66%
    21:00 +19°C° 0 mm 2 mps 701 mmHg 68%
    22:00 +18°C° 0 mm 2 mps 701 mmHg 69%
    23:00 +18°C° 0 mm 2 mps 700 mmHg 71%

    26 June, Tuesday

    Time Temperature Precipitation Wind Pressure Humidity
    00:00 +18°C° 0 mm 2 mps 700 mmHg 72%
    01:00 +18°C° 0 mm 2 mps 700 mmHg 73%
    02:00 +18°C° 0 mm 2 mps 700 mmHg 73%
    03:00 +17°C° 0 mm 2 mps 699 mmHg 74%
    04:00 +17°C° 0 mm 2 mps 699 mmHg 75%
    05:00 +17°C° 0 mm 2 mps 700 mmHg 75%
    06:00 +17°C° 0 mm 2 mps 700 mmHg 76%
    07:00 +18°C° 0 mm 2 mps 700 mmHg 71%
    08:00 +20°C° 0 mm 2 mps 701 mmHg 66%
    09:00 +21°C° 0 mm 3 mps 701 mmHg 61%
    10:00 +24°C° 0 mm 3 mps 701 mmHg 55%
    11:00 +25°C° 0 mm 3 mps 701 mmHg 49%
    12:00 +27°C° 0 mm 3 mps 701 mmHg 43%
    13:00 +27°C° 0 mm 3 mps 701 mmHg 43%
    14:00 +27°C° 0 mm 3 mps 700 mmHg 44%
    15:00 +27°C° 0 mm 3 mps 700 mmHg 45%
    16:00 +25°C° 0 mm 2 mps 700 mmHg 51%
    17:00 +23°C° 0 mm 1 mps 700 mmHg 58%
    18:00 +20°C° 0 mm 0 mps 700 mmHg 65%
    19:00 +19°C° 0 mm 0 mps 700 mmHg 67%
    20:00 +18°C° 0 mm 0 mps 700 mmHg 69%
    21:00 +18°C° 0 mm 0 mps 701 mmHg 71%
    22:00 +20°C° 0 mm 1 mps 701 mmHg 71%
    23:00 +19°C° 0 mm 1 mps 701 mmHg 72%

    27 June, Wednesday

    Time Temperature Precipitation Wind Pressure Humidity
    00:00 +19°C° 0 mm 1 mps 700 mmHg 73%
    01:00 +19°C° 0 mm 1 mps 700 mmHg 73%
    02:00 +18°C° 0 mm 1 mps 700 mmHg 74%
    03:00 +18°C° 0 mm 1 mps 700 mmHg 75%
    04:00 +18°C° 0 mm 1 mps 700 mmHg 75%
    05:00 +18°C° 0 mm 1 mps 700 mmHg 76%
    06:00 +18°C° 0 mm 1 mps 700 mmHg 76%
    07:00 +19°C° 0 mm 1 mps 701 mmHg 71%
    08:00 +21°C° 0 mm 1 mps 702 mmHg 66%
    09:00 +22°C° 0 mm 1 mps 702 mmHg 60%
    10:00 +24°C° 0 mm 1 mps 702 mmHg 56%
    11:00 +25°C° 0 mm 1 mps 702 mmHg 51%
    12:00 +27°C° 0 mm 2 mps 702 mmHg 46%
    13:00 +27°C° 0.1 mm 2 mps 702 mmHg 48%
    14:00 +26°C° 0.1 mm 2 mps 701 mmHg 50%
    15:00 +26°C° 0.1 mm 2 mps 701 mmHg 51%
    16:00 +24°C° 0.1 mm 2 mps 701 mmHg 59%
    17:00 +23°C° 0.1 mm 2 mps 701 mmHg 68%
    18:00 +20°C° 0.1 mm 2 mps 701 mmHg 76%
    19:00 +19°C° 0.1 mm 2 mps 701 mmHg 80%
    20:00 +19°C° 0.1 mm 2 mps 702 mmHg 84%
    21:00 +19°C° 0.1 mm 1 mps 702 mmHg 88%
    22:00 +19°C° 0 mm 1 mps 702 mmHg 89%
    23:00 +19°C° 0 mm 1 mps 702 mmHg 90%
    Show more